Wind_Speed
19 18 17 15 12 11 12 13 8 3 5 13 12 24 26 27 23 25 24 22 20 18 17 15 13 12 12 12 12 12 10 9 10 9 9 9 9 9
20 21 22 21 19 18 15 14 14 11 3 12 17 17 25 29 26 24 24 22 20 19 17 18 16 15 13 13 13 12 11 9 10 9 9 8 8 8
24 23 22 24 27 24 20 17 19 17 13 14 13 18 18 26 28 26 24 24 22 19 18 18 18 18 16 13 13 13 12 10 9 9 9 8 8 7
30 27 29 27 27 30 27 25 22 22 21 20 18 17 20 24 28 28 25 24 25 23 21 19 18 20 19 16 14 13 13 9 8 8 9 9 8 9
35 33 34 32 32 30 30 31 28 25 25 25 25 19 20 24 28 28 28 26 25 24 22 22 20 19 22 20 17 15 13 11 9 10 11 10 10 10
37 37 37 37 36 35 33 33 33 31 27 28 27 23 22 25 28 29 31 31 30 26 24 24 23 20 20 21 20 20 18 15 12 12 12 10 12 12
39 40 40 40 40 40 39 38 36 36 36 31 29 25 23 25 29 32 33 34 33 29 27 26 24 21 22 24 24 22 21 19 16 11 10 8 11 12
42 42 42 42 43 44 43 43 41 39 35 29 27 24 30 35 31 35 33 25 14 33 32 30 27 27 26 25 25 19 20 21 16 12 9 7 7 6
42 40 41 44 45 45 46 47 46 47 46 40 35 37 33 38 38 35 35 29 28 29 31 34 31 32 29 27 25 21 19 17 13 13 10 6 2 3
41 42 41 40 42 44 44 42 49 53 53 51 47 45 43 40 41 42 40 41 37 33 34 24 31 32 26 24 23 19 19 17 14 14 12 9 4 2
38 39 41 42 42 40 41 39 39 51 49 54 56 55 53 45 44 38 33 27 20 27 34 35 27 30 26 27 22 21 20 18 17 15 13 12 10 8
37 41 42 46 41 39 41 38 39 46 36 39 50 55 57 55 49 45 38 32 29 18 34 32 26 23 8 23 25 27 24 21 18 16 15 14 12 10
35 37 37 38 40 43 43 46 50 45 39 41 41 40 47 49 53 54 50 45 36 29 35 43 29 24 13 6 25 30 28 25 24 22 20 18 16 14
36 35 35 36 38 40 43 51 55 53 48 40 34 36 35 37 43 50 53 54 46 45 34 35 21 28 26 14 11 27 29 26 24 24 21 20 17 14
42 38 37 37 39 41 44 47 49 51 44 40 39 37 38 41 41 46 44 46 47 51 43 40 35 29 31 26 19 21 28 26 24 22 22 20 17 14
41 44 43 43 40 38 39 43 46 47 39 39 41 42 39 37 39 41 40 38 39 34 43 40 37 34 36 32 30 23 25 17 27 23 20 19 16 11
28 29 31 29 27 27 28 35 37 39 39 40 39 40 40 35 34 38 41 38 32 27 28 34 35 36 34 32 20 27 27 21 22 22 20 20 15 11
10 14 19 21 21 22 23 26 29 34 39 37 38 40 39 38 32 35 38 37 36 32 29 27 30 24 17 21 29 29 24 26 25 21 22 20 15 15
8 7 8 10 13 16 18 20 24 28 31 33 40 39 33 42 39 37 37 37 32 25 23 33 38 28 10 6 19 21 28 25 22 21 23 21 15 14
2 3 6 9 14 16 18 20 24 26 30 34 36 37 42 36 42 39 36 37 38 33 30 32 35 37 26 15 12 27 26 25 25 23 24 18 12 10
6 7 11 14 16 17 18 21 21 25 31 34 36 36 36 34 36 39 39 20 20 26 24 21 32 36 26 23 13 14 26 24 24 28 23 21 16 13
9 12 13 14 17 20 24 22 24 22 26 29 28 25 12 15 21 28 27 24 16 23 20 23 29 30 25 20 16 17 22 21 21 24 20 20 17 11
10 13 15 17 17 18 20 20 18 19 15 20 20 9 16 27 23 18 22 26 26 27 30 24 25 28 23 22 24 23 22 23 25 27 26 22 20 20
Wind_Direction
222 225 227 225 224 226 225 215 189 199 235 229 225 232 231 232 233 231 234 234 234 237 240 244 249 257 264 272 271 280 287 296 303 310 307 315 325 322
226 230 232 233 234 236 239 237 229 218 211 233 238 234 230 230 235 233 235 235 238 240 244 249 255 258 261 268 269 275 282 292 301 303 308 312 322 329
229 231 234 234 234 235 239 246 242 231 223 247 248 227 227 228 230 230 233 232 232 239 244 248 254 257 260 267 270 277 277 291 297 297 300 304 315 333
230 231 234 236 240 238 239 240 244 240 237 241 245 236 234 234 230 227 226 229 233 235 242 246 252 254 251 257 263 272 271 284 288 287 286 289 302 321
234 232 237 236 240 242 241 242 241 243 245 247 249 243 236 229 219 225 225 229 237 238 239 241 239 256 245 243 249 257 260 267 267 279 278 283 293 300
238 240 242 243 244 245 246 246 247 245 248 245 248 242 230 226 222 224 221 227 235 238 240 246 250 248 242 240 245 253 255 256 258 263 272 277 291 297
242 243 244 246 247 247 247 249 248 248 247 248 245 235 225 221 221 226 228 234 237 238 240 239 241 245 235 221 233 244 249 253 256 253 260 280 306 305
237 244 249 249 251 251 252 251 253 251 241 234 239 233 235 231 229 227 229 226 240 237 237 238 235 241 243 243 234 240 251 251 250 242 248 284 320 340
236 239 243 248 251 251 251 251 249 252 251 245 234 234 236 237 237 233 227 224 228 232 228 233 234 236 240 246 230 232 242 228 222 226 226 248 335 17
238 240 240 243 244 247 247 247 248 247 247 247 244 248 242 241 240 243 237 237 241 238 232 224 230 229 234 228 232 224 214 209 216 213 217 218 215 230
240 242 242 244 243 243 242 241 246 253 251 250 251 253 254 249 247 235 226 213 226 232 222 219 216 221 226 228 224 214 203 214 210 208 213 215 220 241
243 245 246 246 246 243 240 238 244 249 246 243 247 249 250 250 247 238 231 213 220 211 217 199 206 207 219 232 218 211 206 212 206 212 214 219 230 247
243 248 249 251 250 248 244 239 244 256 256 250 244 245 244 241 238 238 236 223 217 221 220 200 201 194 191 203 214 211 208 207 208 216 220 226 229 245
242 249 251 253 254 252 250 251 252 252 250 254 249 244 242 238 232 232 230 230 228 225 220 208 201 192 198 196 191 204 210 209 213 221 222 218 227 227
246 249 254 256 257 257 255 257 258 253 248 250 252 250 243 241 235 233 231 229 228 226 216 196 195 199 213 217 194 184 195 206 210 211 207 213 203 205
251 255 258 261 265 267 265 265 261 256 247 247 251 255 253 241 229 222 220 218 216 213 200 189 195 202 206 217 196 178 185 177 193 198 195 191 193 207
259 262 267 268 267 268 266 265 261 262 257 253 252 251 250 247 231 223 218 209 206 195 171 183 188 204 212 201 184 205 192 188 189 188 186 184 191 209
239 253 266 274 269 271 269 267 261 257 255 254 254 255 252 248 233 217 215 214 204 194 182 164 173 176 191 212 214 198 196 193 186 192 187 185 188 197
240 255 272 282 285 288 293 297 291 284 280 259 264 257 256 259 243 218 211 204 189 177 167 168 162 183 170 166 189 201 190 190 190 188 190 193 199 202
20 353 343 341 335 325 313 308 307 303 294 288 282 279 272 263 259 233 208 195 185 174 167 174 171 178 176 175 173 195 195 183 187 193 189 196 199 187
14 347 341 340 337 329 329 326 318 312 306 296 284 278 275 274 293 271 244 215 140 148 139 164 188 179 173 185 159 172 189 203 213 198 191 195 194 201
353 337 329 318 308 305 311 313 316 327 335 331 306 281 291 90 86 88 94 111 139 161 167 168 169 176 178 179 167 170 184 195 196 206 216 219 199 197
334 336 332 326 322 317 317 316 312 320 353 6 19 24 136 126 130 138 156 166 155 146 152 142 158 174 180 188 183 176 180 187 194 209 222 225 232 236
Height
853 853 854 856 856 857 857 857 857 863 861 858 858 858 860 861 863 865 866 866 866 867 867 867 868 869 869 869 870 870 871 870 868 868 867 867 866 864
850 851 852 853 854 852 853 855 856 856 859 855 853 854 855 857 859 861 862 863 864 864 865 866 867 867 867 866 866 866 866 865 866 866 866 865 862 862
845 847 848 849 846 848 850 852 852 853 852 851 851 852 852 853 855 856 857 858 860 860 861 862 862 864 865 864 864 864 863 862 862 864 865 863 861 860
839 842 842 843 843 844 845 846 848 849 848 847 848 848 849 850 850 852 854 854 854 855 856 857 858 858 859 860 861 861 861 860 859 858 859 859 860 858
832 834 834 837 838 840 841 842 843 845 845 843 842 844 844 844 845 847 849 850 850 850 851 850 851 852 852 853 855 855 856 856 855 854 854 855 856 856
826 828 829 831 833 835 836 836 837 839 839 839 839 840 840 841 841 841 842 842 842 844 844 845 847 846 848 850 850 850 851 850 849 849 850 851 852 852
818 820 822 822 824 826 828 828 830 831 832 833 834 834 833 834 834 835 836 837 837 839 839 841 842 843 841 835 840 843 844 845 845 845 846 847 848 846
811 812 813 815 816 818 818 821 822 823 823 825 826 826 824 824 826 827 829 831 832 831 832 833 835 834 835 834 835 837 839 841 841 842 842 843 843 842
801 803 804 805 805 806 807 809 811 810 810 812 811 811 811 811 815 817 816 817 818 818 822 821 824 825 827 830 829 830 832 835 837 839 839 840 839 838
792 792 794 794 795 796 798 798 798 797 799 802 800 796 796 801 804 805 805 808 809 810 813 814 816 814 817 822 827 824 826 829 831 834 835 837 837 837
784 784 783 783 784 789 791 790 789 782 787 788 787 787 789 790 793 797 796 800 800 799 801 803 804 809 811 812 818 821 819 825 826 828 832 833 833 833
776 773 772 772 776 781 782 783 778 768 777 775 773 775 777 778 780 781 784 784 785 787 786 792 796 804 807 807 810 813 815 820 822 825 827 829 830 829
764 761 762 764 767 769 770 768 762 767 767 765 762 761 761 762 762 766 766 768 770 770 771 778 784 790 796 802 804 807 810 811 816 819 821 824 825 825
753 752 753 755 756 756 757 753 753 755 756 756 752 749 750 748 748 751 753 754 756 757 764 767 774 780 783 794 794 798 804 807 810 813 817 819 820 821
742 742 744 745 746 745 745 744 744 745 745 744 739 736 735 734 733 737 740 743 745 744 746 753 755 769 783 785 786 787 797 801 805 808 811 813 814 816
735 735 736 737 738 737 736 735 735 734 733 731 727 726 724 722 719 720 725 727 729 733 739 718 740 757 766 777 778 783 790 793 798 803 805 808 811 812
729 729 728 729 728 727 727 725 725 723 721 719 716 712 709 708 705 708 707 710 714 723 724 731 735 747 756 766 772 779 783 787 792 798 801 803 805 806
723 723 723 724 723 722 721 718 716 712 708 707 704 700 696 694 692 692 694 696 697 703 713 714 729 746 754 762 766 770 778 783 785 791 795 800 801 804
718 719 720 720 719 717 715 713 708 706 702 696 693 687 682 683 678 670 675 681 684 697 703 695 707 742 743 751 761 766 769 775 780 786 788 791 795 797
715 716 716 716 715 713 711 709 705 701 698 693 688 680 674 665 664 657 654 657 659 666 683 700 702 718 726 741 754 759 764 765 773 779 785 789 793 793
715 714 713 711 710 709 708 704 702 697 690 682 673 668 663 661 658 656 649 646 631 664 668 693 708 714 724 739 749 754 757 761 765 771 779 784 785 790
712 712 711 711 709 707 705 702 698 692 684 676 664 658 658 657 660 655 659 665 672 676 688 701 706 716 727 735 744 750 753 757 762 770 775 779 780 783
711 711 709 708 705 703 701 697 693 691 685 678 668 659 657 659 658 660 660 662 671 678 690 703 709 719 726 735 741 744 749 753 758 764 771 773 776 780